Torna al catalogo

STARLINK-38266

AttivoComunicazioniSSO
NORAD 100255·PAYLOAD·🇺🇸 United States

Lanciato Aug 8, 2026 da Vandenberg Space Force Base

Loading…

Prossimi Passaggi (prossime 24 ore)

TLE

AggiornatoSource: Space-Track

Epoca: Sep 14, 2026, 15:24 UTC

1 A0255U 26181K   26257.64180234  .00150101  00000-0  98992-3 0  9998
2 A0255  97.2830 300.8785 0002669  78.2966 281.8598 15.75180937  7032

Traccia STARLINK-38266 in tempo reale con AllMySat

Download on the App Store